User: anonymous   Login
Location: *
(33.8649°S, 62.1526°E)
Time: 18:03:13
(UTC+00:00)
Language:

Cosmos 2123 Rocket - Orbit

View from above orbital plane
View from above orbital plane
View from above satellite
View from above satellite

Ground track
Ground track

The orbit data is extracted from the following two-line orbital elements,

1 21090U 91007B   21110.17373731 -.00000040  00000-0 -56234-4 0  9996
2 21090  82.9176 273.7579 0021863  74.0027 286.3536 13.76403062516981
Epoch (UTC): 20 April 2021 04:10:10
Eccentricity: 0.0021863
inclination: 82.9176°
perigee height: 960 km
apogee height: 993 km
right ascension of ascending node: 273.7579°
argument of perigee: 74.0027°
revolutions per day: 13.76403062
mean anomaly at epoch: 286.3536°
orbit number at epoch: 51698

The dashed part of the orbit path shows where the satellite is in the earth's shadow,  

DLR